Weather History for San Juan, PR

Change the Weather History Date:

Friday, January 3, 2014

  Actual Average Record
Temperature  
Mean Temperature 81 °F 78 °F  
Max Temperature 86 °F 83 °F 87 °F (1996)
Min Temperature 75 °F 72 °F 67 °F (1963)
Degree Days  
Heating Degree Days 0 0  
Month to date heating degree days 0 0  
Since 1 July heating degree days 0 0  
Cooling Degree Days 16 13  
Month to date cooling degree days 46 39  
Year to date cooling degree days 46 39  
Growing Degree Days 30 (Base 50)    
Moisture  
Dew Point 73 °F    
Average Humidity 76    
Maximum Humidity 91    
Minimum Humidity 61    
Precipitation  
Precipitation 0.13 in 0.15 in 0.60 in (2001)
Month to date precipitation 0.73 0.45  
Year to date precipitation 0.73 0.45  
Sea Level Pressure  
Sea Level Pressure 30.01 in    
Wind  
Wind Speed 7 mph (East)    
Max Wind Speed 22 mph    
Max Gust Speed 26 mph    
Visibility 9 miles    
Events Rain    
T = Trace of Precipitation, MM = Missing Value Source: NWS Daily Summary

Daily Weather History Graph

Daily Weather History Graph

Search for Another Location

Airport:

Trip Planner

Search our weather history database for the weather conditions in past years. The results will help you decide how hot, cold, wet, or windy it might be!

Date:

Astronomy

Jan. 03, 2014 Rise Set
Actual Time 6:56 AM AST 6:00 PM AST
Civil Twilight 6:33 AM AST 6:24 PM AST
Nautical Twilight 6:06 AM AST 6:51 PM AST
Astronomical Twilight 5:39 AM AST 7:18 PM AST
Moon 8:42 AM AST (1/3) 8:38 PM AST (1/3)
Length of Visible Light 11h 50m
Length of Day
11h 03m
Waxing Crescent, 7% of the Moon is Illuminated
Jan 3
Waxing Crescent
Jan 7
First Quarter
Jan 16
Full
Jan 24
Last Quarter
Jan 30
New

Hourly Weather History & Observations

Time (AST) Temp. Heat Index Dew Point Humidity Pressure Visibility Wind Dir Wind Speed Gust Speed Precip Events Conditions
12:56 AM 77.0 °F - 72.0 °F 84% 30.00 in 10.0 mi Calm Calm - N/A   Clear
1:56 AM 77.0 °F - 72.0 °F 84% 29.99 in 10.0 mi SE 3.5 mph - N/A   Partly Cloudy
2:56 AM 78.1 °F - 73.0 °F 84% 29.98 in 10.0 mi East 6.9 mph - N/A   Scattered Clouds
3:56 AM 77.0 °F - 73.0 °F 88% 29.97 in 10.0 mi ESE 4.6 mph - N/A   Scattered Clouds
4:56 AM 75.9 °F - 72.0 °F 87% 29.98 in 10.0 mi Calm Calm - N/A   Scattered Clouds
5:56 AM 75.9 °F - 72.0 °F 87% 29.99 in 10.0 mi Calm Calm - N/A   Scattered Clouds
6:56 AM 75.0 °F - 71.1 °F 87% 30.01 in 10.0 mi Calm Calm - N/A   Partly Cloudy
7:56 AM 77.0 °F - 73.0 °F 88% 30.04 in 10.0 mi Calm Calm - N/A   Partly Cloudy
8:56 AM 81.0 °F 85.2 °F 72.0 °F 74% 30.06 in 10.0 mi Variable 5.8 mph - N/A   Scattered Clouds
9:56 AM 82.9 °F 88.8 °F 73.0 °F 72% 30.06 in 10.0 mi East 11.5 mph - N/A   Scattered Clouds
10:56 AM 84.0 °F 89.6 °F 72.0 °F 67% 30.04 in 10.0 mi ENE 11.5 mph - N/A   Scattered Clouds
11:56 AM 84.9 °F 90.7 °F 72.0 °F 65% 30.02 in 10.0 mi ENE 15.0 mph - N/A   Scattered Clouds
12:56 PM 84.0 °F 89.6 °F 72.0 °F 67% 30.00 in 10.0 mi East 19.6 mph 24.2 mph N/A   Scattered Clouds
1:56 PM 84.9 °F 89.4 °F 70.0 °F 61% 29.99 in 10.0 mi Variable 6.9 mph - N/A   Mostly Cloudy
2:56 PM 84.9 °F 90.1 °F 71.1 °F 63% 29.98 in 10.0 mi ENE 15.0 mph - N/A   Scattered Clouds
3:56 PM 82.0 °F 87.4 °F 73.0 °F 74% 29.99 in 10.0 mi ESE 8.1 mph 23.0 mph N/A   Mostly Cloudy
4:56 PM 81.0 °F 86.7 °F 75.0 °F 82% 29.99 in 10.0 mi ENE 12.7 mph - 0.00 in   Scattered Clouds
5:56 PM 80.1 °F 85.1 °F 75.0 °F 85% 30.00 in 10.0 mi ESE 5.8 mph - 0.00 in   Mostly Cloudy
6:50 PM 78.8 °F - 75.2 °F 89% 30.01 in 2.5 mi East 19.6 mph 26.5 mph 0.05 in Rain Heavy Rain
6:56 PM 78.1 °F - 75.9 °F 93% 30.01 in 2.5 mi ENE 11.5 mph 26.5 mph 0.11 in Rain Rain
7:02 PM 77.0 °F - 75.2 °F 94% 30.01 in 4.0 mi ENE 9.2 mph - 0.02 in Rain Light Rain
7:56 PM 79.0 °F - 75.9 °F 90% 30.03 in 10.0 mi East 4.6 mph - 0.02 in   Mostly Cloudy
8:56 PM 79.0 °F - 75.9 °F 90% 30.04 in 10.0 mi ESE 5.8 mph - 0.00 in   Scattered Clouds
9:56 PM 79.0 °F - 75.9 °F 90% 30.05 in 10.0 mi ESE 3.5 mph - N/A   Mostly Cloudy
10:56 PM 78.1 °F - 75.9 °F 93% 30.05 in 10.0 mi ESE 3.5 mph - 0.00 in   Partly Cloudy
11:56 PM 78.1 °F - 73.9 °F 87% 30.06 in 10.0 mi ESE 4.6 mph - N/A   Partly Cloudy